Flag for Germany Weather past 2 weeks in Aurich, Lower Saxony, Germany

Now
59 °F

Scattered clouds.


Feels Like: 56 °F
Forecast: 47 / 54 °F
Wind: 18 mph from West

Location: Wittmundhaven

Current Time: Oct 20, 2014 at 11:43:51 AM

Latest Report: Oct 20, 2014 at 10:20 AM


Visibility: N/A

Pressure: 29.86 "Hg

Humidity: 82%

Dew point: 54 °F

Location of AurichLocation

Historic Weather in Aurich — Graph

°F

Aurich temperature yesterday

Maximum temperature yesterday: 68 °F (at 12:20 PM)
Minimum temperature yesterday: 59 °F (at 9:20 PM)
Average temperature yesterday: 63 °F

Past Weeks' High & Low Weather Summary

 TemperatureHumidityPressure
High68 °F (Oct 19, 12:20 PM)100% (Oct 6, 12:20 AM)30.07 "Hg (Oct 6, 12:20 AM)
Low45 °F (Oct 11, 7:20 AM)59% (Oct 6, 2:20 PM)29.42 "Hg (Oct 7, 2:20 PM)
Average56 °F87%29.78 "Hg
* Reported Oct 5 10:20 AM — Oct 20 10:20 AM, Aurich, Weather by CustomWeather, © 2014

Note: Actual official high and low records may vary slightly from our data, if they occured in-between our weather recording intervals... More about our weather records

Advertising

Aurich weather history for previous 24 hours

 ConditionsComfort  
Time TempWeatherWind HumidityBarometerVisibility
10:20 AM
Oct 20
59 °FScattered clouds.18 mph82%29.86 "HgN/A
9:20 AM57 °FScattered clouds.14 mph88%29.86 "HgN/A
8:20 AM57 °FSprinkles. Partly cloudy.14 mph88%29.83 "HgN/A
7:20 AM57 °FPassing clouds.15 mph88%29.83 "HgN/A
5:20 AM57 °FPassing clouds.14 mph88%29.83 "HgN/A
4:20 AM57 °FPassing clouds.16 mph88%29.83 "HgN/A
3:20 AM57 °FSprinkles. Partly cloudy.18 mph88%29.83 "HgN/A
2:20 AM59 °FLight rain. Partly cloudy.21 mph82%29.83 "HgN/A
1:20 AM59 °FPassing clouds.17 mph88%29.83 "HgN/A
12:20 AM59 °FPassing clouds.17 mph88%29.83 "HgN/A
11:20 PM
Oct 19
59 °FPassing clouds.17 mph88%29.83 "HgN/A
10:20 PM59 °FPassing clouds.14 mph88%29.83 "HgN/A
9:20 PM59 °FPassing clouds.15 mph88%29.83 "HgN/A
8:20 PM61 °FPassing clouds.16 mph83%29.83 "HgN/A
7:20 PM63 °FScattered clouds.16 mph83%29.83 "HgN/A
6:20 PM63 °FPartly sunny.12 mph83%29.83 "HgN/A
5:20 PM64 °FPartly sunny.12 mph83%29.83 "HgN/A
4:20 PM64 °FBroken clouds.15 mph88%29.83 "HgN/A
3:20 PM64 °FDrizzle. Partly sunny.17 mph88%29.83 "Hg4 mi
3:01 PM64 °FDrizzle. Fog.14 mph88%29.83 "Hg3 mi
2:20 PM66 °FLight rain. Broken clouds.14 mph83%29.83 "HgN/A
1:20 PM68 °FBroken clouds.16 mph78%29.86 "HgN/A
12:20 PM68 °FPartly sunny.14 mph78%29.86 "HgN/A
11:20 AM66 °FScattered clouds.10 mph83%29.86 "HgN/A
Weather by CustomWeather, © 2014

See weather overviewHow to use our weather pages